Weather in Alkino

Russia / Republic of Mordovia     53°48′55″N   43°57′18″E
temp.,
°C
wind,
m/s
gust,
m/s
humid.,
%
clouds,
%
prec.,
mm/h
press.,
hPa
HPBL,
m
28 february, sun
sun2800:00−15nnw489796 0.0 1011176
03:00−17nw379888 0.0 1013135
06:00−17nw369876 0.0 1014142
09:00−15nnw479577 0.0 1014286
12:00−12nnw469192 0.0 1015439
15:00−11nnw469096 0.0 1016477
18:00−14nnw239594 0.0 101734
21:00−16n239548 0.0 102020
1 march, mon
mon100:00−17nnw22950 0.0 102120
03:00−18nnw22960 0.0 102220
06:00−18nnw22979 0.0 102320
09:00−14nw239524 0.0 1025133
12:00−10wnw238982 0.0 1024307
15:00−8w369290 0.0 1024348
18:00−11sw479798 0.0 1022122
21:00−8wsw4129699 0.1 1020376
2 march, tue
tue200:00−4sw61394100 0.2 1016459
03:00−3wsw71496100 1.3 1012598
06:00−2wsw81595100 1.1 1008698
09:000wsw71398100 2.5 1005820
12:000wnw611100100 1.6 1003660
15:000nw6119296 2.1 1004851
18:00−2nw5129091 0.2 1004400
21:00−2wnw5129494 0.3 1006582
3 march, wed
wed300:00−3nw61295100 0.3 1006543
03:00−5nw5119599 0.6 1006438
06:00−5nw5119596 0.3 1007447
09:00−5nw7129497 0.6 1009688
12:00−4nw71191100 0.3 1010804
15:00−4nw71190100 0.6 1012986
18:00−6nw61292100 0.3 1013613
21:00−8nw41191100 0.3 1016288
4 march, thu
thu400:00−10wnw479754 0.0 1017137
03:00−11w359853 0.0 101784
06:00−9wsw489897 0.1 1017183
09:00−6wsw6119398 0.1 1016383
12:00−2wsw8139191 0.0 1013619
15:00−1wsw8158694 0.0 1011804
18:00−3sw71687100 0.0 1009640
21:00−3sw8188870 0.0 1008652